Weather History for Kirksville, MO

Change the Weather History Date:

Thursday, June 27, 2013

  Actual Average Record
Temperature  
Mean Temperature 75 °F 73 °F  
Max Temperature 88 °F 83 °F 101 °F (1934)
Min Temperature 61 °F 63 °F 48 °F (1968)
Degree Days  
Heating Degree Days 0 0  
Month to date heating degree days 36 12  
Since 1 June heating degree days 36 12  
Since 1 July heating degree days 6071 5852  
Cooling Degree Days 10 8  
Month to date cooling degree days 188 165  
Year to date cooling degree days 256 227  
Since 1 June cooling degree days 188 165  
Growing Degree Days 24 (Base 50)    
Moisture  
Dew Point 68 °F    
Average Humidity 79    
Maximum Humidity 100    
Minimum Humidity 57    
Precipitation  
Precipitation T in 0.11 in 1.98 in (2010)
Month to date precipitation 3.27 4.46  
Year to date precipitation 27.74 18.61  
Sea Level Pressure  
Sea Level Pressure 29.90 in    
Wind  
Wind Speed 5 mph (WNW)    
Max Wind Speed 12 mph    
Max Gust Speed 18 mph    
Visibility 10 miles    
Events Rain    
T = Trace of Precipitation, MM = Missing Value Source: NWS Daily Summary

Daily Weather History Graph

Daily Weather History Graph

Search for Another Location

Airport:

Trip Planner

Search our weather history database for the weather conditions in past years. The results will help you decide how hot, cold, wet, or windy it might be!

Date:

Astronomy

Jun. 27, 2013 Rise Set
Actual Time 5:43 AM CDT 8:43 PM CDT
Civil Twilight 5:10 AM CDT 9:16 PM CDT
Nautical Twilight 4:28 AM CDT 9:58 PM CDT
Astronomical Twilight 3:39 AM CDT 10:46 PM CDT
Moon 11:40 PM CDT (6/27) 10:44 AM CDT (6/27)
Length of Visible Light 16h 06m
Length of Day
15h 00m
Waning Gibbous, 76% of the Moon is Illuminated
Jun 27
Waning Gibbous
Jun 29
Last Quarter
Jul 8
New
Jul 15
First Quarter
Jul 22
Full

Hourly Weather History & Observations

Time (CDT) Temp. Heat Index Dew Point Humidity Pressure Visibility Wind Dir Wind Speed Gust Speed Precip Events Conditions
12:55 AM 66.9 °F - 66.0 °F 97% 29.87 in 10.0 mi West 3.5 mph - N/A   Clear
1:55 AM 66.9 °F - 64.9 °F 93% 29.87 in 10.0 mi West 4.6 mph - N/A   Clear
2:55 AM 66.9 °F - 64.9 °F 93% 29.88 in 10.0 mi West 5.8 mph - N/A   Clear
3:55 AM 66.9 °F - 64.9 °F 93% 29.88 in 10.0 mi WNW 4.6 mph - N/A   Clear
4:55 AM 64.0 °F - 63.0 °F 96% 29.89 in 10.0 mi Calm Calm - N/A   Clear
5:55 AM 61.0 °F - 61.0 °F 100% 29.91 in 7.0 mi West 3.5 mph - N/A   Clear
6:55 AM 70.0 °F - 66.0 °F 87% 29.92 in 10.0 mi NW 3.5 mph - N/A   Clear
7:55 AM 75.9 °F - 69.1 °F 79% 29.92 in 10.0 mi Calm Calm - N/A   Clear
8:55 AM 80.1 °F 82.9 °F 69.1 °F 69% 29.93 in 10.0 mi Calm Calm - N/A   Clear
9:55 AM 84.0 °F 88.4 °F 70.0 °F 63% 29.93 in 10.0 mi Variable 3.5 mph - N/A   Clear
10:55 AM 82.9 °F 86.5 °F 69.1 °F 63% 29.94 in 10.0 mi SW 4.6 mph - N/A   Clear
11:55 AM 86.0 °F 90.1 °F 69.1 °F 57% 29.93 in 10.0 mi Variable 5.8 mph - N/A   Clear
12:55 PM 86.0 °F 91.5 °F 71.1 °F 61% 29.95 in 10.0 mi West 8.1 mph - N/A   Clear
1:55 PM 82.0 °F 85.9 °F 70.0 °F 67% 29.97 in 10.0 mi West 11.5 mph 18.4 mph N/A   Clear
2:55 PM 80.1 °F 83.2 °F 70.0 °F 71% 29.95 in 10.0 mi West 4.6 mph - 0.00 in Rain Light Rain
3:55 PM 82.0 °F 85.9 °F 70.0 °F 67% 29.90 in 10.0 mi NNW 5.8 mph - 0.00 in   Clear
4:55 PM 82.0 °F 85.9 °F 70.0 °F 67% 29.90 in 10.0 mi West 9.2 mph - N/A   Clear
5:55 PM 84.0 °F 87.8 °F 69.1 °F 61% 29.88 in 10.0 mi WNW 8.1 mph - N/A   Clear
6:55 PM 82.9 °F 87.5 °F 71.1 °F 67% 29.86 in 10.0 mi WNW 5.8 mph - N/A   Clear
7:55 PM 80.1 °F 83.6 °F 71.1 °F 74% 29.86 in 10.0 mi NW 4.6 mph - N/A   Clear
8:55 PM 75.9 °F - 71.1 °F 85% 29.86 in 10.0 mi WNW 4.6 mph - N/A   Clear
9:55 PM 73.0 °F - 70.0 °F 90% 29.88 in 10.0 mi WNW 5.8 mph - N/A   Clear
10:55 PM 72.0 °F - 69.1 °F 91% 29.90 in 10.0 mi WSW 4.6 mph - N/A   Clear
11:55 PM 70.0 °F - 68.0 °F 93% 29.89 in 10.0 mi West 3.5 mph - N/A   Clear